Showing default

YUNHAI 2-2B, 59281

Orbit data source: Space-Track

YUNHAI 2-2B, 59281 is a payload satellite owned by CASC (CN) in LEO that was launched on Thu, 21 Mar 2024 UTC via a CHANG ZHENG 2D/YZ-3 launch vehicle from the Jiuquan Satellite Launch Center, China (JSC). Payload-class satellites include a variety of spacecraft equipped with specific instruments for various scientific and technological missions. These include communications satellites like Starlink; space stations such as the ISS; scientific satellites like the Hubble; Earth observation satellites from companies like Planet Labs, Umbra, and HawkEye 360; GPS; miniature CubeSats for education and research; and military/defense satellites.

Loading next visibility...
Identifier
59281, 2024-052B
Orbit
LEO
Country
Flag of CNCN / PRC
Related business
Manufacturer
DFH Shenzhen
Mission
Operational Defense Meteo Radio Occ.
Bus & Motor
YH-2, Unknown motor
Mass
~100 kg wet, ~100 kg dry
Launch date (UTC)
2024-03-21 (2 years ago)
Launch vehicle
CHANG ZHENG 2D/YZ-3
Launch site
Jiuquan Satellite Launch Center, China (JSC)
Object type
Payload
Rocket body
Debris
Shape & HBR
Box + 2 Pan, 0.5 m
Radar Cross Section
0.166 m², Large (>1 m²)

Expand to show TLE details & history
Last TLE update: 21 hours ago

TLE from 21 hours ago
0 YUNHAI 2-2B
1 59281U 24052B   26172.55775318  .00000032  00000-0  77547-4 0  9996
2 59281  50.0117   3.9690 0004718 202.8247 157.2459 14.27975413117233
Epoch: 2026-06-21T13:23Z
TLE epoch observation values (Epoch: 2026-06-21T13:23:09.874Z)
Latitude
-0.00001°
Longitude
-106.57846°
Altitude
802.16 km
Speed
7.452 km/s
True Right ascension
00h 15m 52s
True Declination
0° 00' 00"
Sunlit
Object was in daylight at epoch
Visualization orbit readout
Latitude
Unknown
Longitude
Unknown
Altitude
Unknown
Speed
Unknown
Apparent Right ascension
Unknown
Apparent Declination
Unknown
Sunlit
N/A
Visualization observer readout
Local Sidereal Time
21:28:04
Azimuth
Unknown
Elevation
Unknown
Doppler factor
Unknown
Orbital elements
Apogee altitude
802.63 km
Perigee altitude
795.857 km
Semi-major axis
7,177.381 km
Eccentricity
0.00047
Inclination
50.0117°
RAAN
3.969°
Arg. of periapsis
202.8247°
True anomaly
157.2668°
Mean anomaly
157.2459°
Eccentric anomaly
157.25635°
Mean motion
3.56939 °/min
Orbital period
100.86 mins
BSTAR
0.000077547
Loading maneuver chart data...
Computing Atmospheric mass density...
Loading historical data...
Loading historical data...
Loading historical data...
Loading historical data...
Loading historical data...
Loading historical data...
Loading historical data...

Documentation

Showing up to 5 results
|